Total_Precipitation_Accumulation
0.59 0.60 0.70 0.55 0.52 0.56 0.63 0.71 0.77 0.71 0.69 0.70 0.62 0.56 0.55 0.54 0.49 0.46 0.51 0.57 0.65 0.71 0.77 0.85 0.95 1.01 1.03 0.95 0.88 0.83 0.91 0.94 1.08 1.05 1.01 1.01 1.10 1.30 1.47 1.47 1.48 0.95 0.84
0.33 0.37 0.52 0.43 0.47 0.58 0.64 0.74 0.77 0.71 0.69 0.67 0.63 0.58 0.56 0.55 0.53 0.50 0.53 0.60 0.65 0.67 0.72 0.79 0.83 0.84 0.79 0.75 0.71 0.71 0.83 1.00 1.23 1.30 1.32 1.21 1.30 1.47 1.51 1.43 1.51 0.87 0.83
0.20 0.22 0.28 0.32 0.32 0.38 0.46 0.55 0.60 0.57 0.55 0.57 0.57 0.53 0.55 0.55 0.53 0.52 0.54 0.59 0.63 0.67 0.65 0.66 0.66 0.64 0.64 0.68 0.69 0.75 0.85 1.17 1.52 1.72 1.86 1.47 1.04 1.43 1.50 1.34 1.16 0.78 0.84
0.12 0.13 0.16 0.24 0.25 0.27 0.34 0.44 0.57 0.56 0.53 0.53 0.49 0.47 0.47 0.51 0.57 0.58 0.60 0.65 0.67 0.67 0.62 0.60 0.55 0.51 0.54 0.61 0.68 0.82 0.95 1.17 1.48 1.94 2.11 1.30 0.74 0.96 1.08 0.98 0.92 0.80 0.79
0.08 0.11 0.19 0.22 0.20 0.21 0.25 0.35 0.46 0.44 0.41 0.41 0.41 0.44 0.46 0.51 0.56 0.61 0.64 0.65 0.62 0.61 0.58 0.53 0.46 0.44 0.46 0.53 0.65 0.80 0.94 1.17 1.47 1.68 1.40 1.29 1.10 0.97 0.86 0.78 0.80 0.75 0.65
0.09 0.11 0.17 0.21 0.19 0.18 0.21 0.28 0.36 0.37 0.35 0.37 0.40 0.44 0.46 0.49 0.54 0.55 0.54 0.55 0.57 0.56 0.54 0.51 0.42 0.45 0.51 0.57 0.69 0.80 0.91 1.17 1.36 1.04 0.88 1.05 0.92 0.96 0.90 0.91 0.93 0.82 0.67
0.11 0.11 0.15 0.21 0.20 0.18 0.21 0.26 0.31 0.35 0.34 0.35 0.38 0.39 0.43 0.48 0.52 0.51 0.45 0.47 0.52 0.53 0.49 0.44 0.42 0.47 0.52 0.57 0.66 0.77 1.00 1.21 1.13 0.80 0.82 1.03 0.79 0.74 0.91 1.06 1.17 1.00 0.80
0.16 0.10 0.14 0.23 0.24 0.25 0.25 0.29 0.33 0.31 0.34 0.38 0.37 0.33 0.36 0.41 0.43 0.46 0.46 0.46 0.50 0.52 0.47 0.41 0.47 0.50 0.54 0.58 0.62 0.69 0.91 1.03 0.84 0.72 0.73 0.76 0.55 0.67 0.91 1.11 1.27 1.16 1.00
0.27 0.23 0.20 0.24 0.28 0.33 0.36 0.35 0.38 0.36 0.35 0.39 0.39 0.37 0.38 0.39 0.38 0.41 0.51 0.53 0.50 0.49 0.47 0.41 0.42 0.44 0.45 0.49 0.58 0.69 0.90 1.05 0.89 0.79 0.64 0.58 0.51 0.68 0.95 1.09 1.19 1.21 1.13
0.61 0.46 0.31 0.29 0.35 0.34 0.33 0.42 0.48 0.44 0.41 0.40 0.40 0.41 0.42 0.43 0.43 0.47 0.51 0.59 0.61 0.56 0.52 0.46 0.41 0.42 0.48 0.55 0.65 0.83 1.01 0.94 0.84 0.89 0.85 0.62 0.61 0.76 0.95 1.06 1.24 1.30 1.21
1.14 0.95 0.59 0.46 0.46 0.49 0.42 0.44 0.57 0.57 0.49 0.49 0.52 0.56 0.70 0.82 0.73 0.83 0.76 0.85 0.84 0.77 0.72 0.68 0.65 0.63 0.60 0.56 0.73 0.99 0.96 0.87 1.12 1.19 0.84 0.65 0.76 1.00 1.16 1.25 1.33 1.32 1.29
1.34 1.23 0.92 0.78 0.60 0.54 0.49 0.62 0.84 0.79 0.81 0.85 0.93 0.91 1.16 1.35 1.25 0.98 1.10 1.33 1.33 1.29 1.16 1.15 1.15 0.96 0.78 0.75 1.25 1.61 1.23 1.26 1.33 1.02 0.83 0.89 1.17 1.45 1.67 1.58 1.43 1.30 1.21
1.48 1.36 1.12 1.02 0.90 0.74 0.86 0.82 0.96 1.16 1.30 1.15 1.06 1.13 1.46 1.38 1.14 1.15 1.25 1.44 1.65 1.58 1.47 1.63 1.73 1.45 1.39 1.65 1.97 1.89 1.48 1.49 1.44 1.27 1.03 1.19 1.56 1.97 2.19 2.04 1.74 1.48 1.28
1.78 1.62 1.42 1.23 1.10 1.07 1.07 1.02 1.07 1.13 1.29 1.29 1.34 1.34 1.54 1.73 1.66 1.67 1.77 1.75 1.85 2.00 2.26 2.19 2.25 2.07 1.97 1.90 2.04 1.86 1.69 1.70 1.62 1.81 1.85 1.79 1.87 2.14 2.55 2.46 2.10 1.77 1.58
2.29 2.17 1.95 1.61 1.56 1.51 1.56 1.57 1.33 1.33 1.42 1.63 1.78 1.73 1.71 1.89 1.92 1.99 2.01 2.04 1.91 2.02 2.21 2.46 2.37 2.44 2.49 2.28 2.01 1.90 1.98 1.96 2.05 2.02 1.99 2.20 2.12 2.12 2.57 2.68 2.39 2.07 1.90
2.95 2.96 2.74 2.39 2.32 2.22 2.01 1.92 1.84 1.69 1.81 1.88 1.97 1.97 1.97 2.18 2.33 2.27 2.10 2.12 2.02 2.05 2.15 2.35 2.44 2.77 2.73 2.67 2.28 2.07 2.10 2.12 2.14 2.24 2.18 2.44 2.32 2.05 2.28 2.53 2.61 2.46 2.21
3.22 3.39 3.39 3.23 3.20 3.04 2.73 2.42 2.21 2.16 2.08 2.24 2.33 2.27 2.32 2.36 2.51 2.43 2.31 2.13 2.13 2.18 2.32 2.38 2.49 2.79 2.79 2.71 2.52 2.34 2.24 2.00 1.89 1.96 2.01 2.17 2.11 1.98 2.07 2.27 2.55 2.64 2.51
3.50 3.70 3.92 3.87 3.86 3.63 3.33 3.01 2.76 2.57 2.49 2.48 2.46 2.46 2.38 2.51 2.56 2.58 2.36 2.11 2.24 2.21 2.34 2.61 2.71 2.86 3.01 3.01 2.76 2.50 2.33 2.14 1.93 1.88 1.79 1.78 1.95 1.63 1.84 2.10 2.32 2.46 2.71
3.87 4.24 4.60 4.66 4.57 4.21 3.78 3.53 3.42 3.17 2.93 2.75 2.72 2.61 2.52 2.55 2.48 2.55 2.35 2.24 2.33 2.49 2.53 2.38 2.85 3.10 3.15 3.13 2.63 2.50 2.13 1.99 1.84 1.68 1.67 1.56 1.63 1.63 1.69 1.76 1.93 2.06 2.56
4.38 4.97 5.00 4.94 5.18 4.94 4.58 4.32 4.06 3.63 3.28 2.99 2.85 2.72 2.53 2.43 2.37 2.58 2.28 2.24 2.42 2.63 2.64 2.70 3.08 3.17 3.03 3.15 2.69 2.31 1.92 1.60 1.53 1.50 1.40 1.40 1.36 1.30 1.37 1.67 1.98 1.79 2.20
4.23 4.77 5.30 5.37 5.24 5.05 4.73 4.25 3.85 3.45 3.23 2.98 2.75 2.56 2.49 2.45 2.51 2.85 2.51 2.65 2.56 2.56 2.59 2.75 2.97 2.92 2.77 3.13 3.15 2.44 1.69 1.29 1.24 1.12 1.11 1.15 1.08 1.11 1.35 1.77 2.05 2.05 1.81
3.67 4.10 4.48 4.72 4.42 4.07 3.84 3.72 3.56 3.50 3.12 2.96 2.92 2.93 2.69 2.69 2.64 2.62 2.72 2.60 2.62 2.65 2.46 2.54 2.82 2.68 2.34 2.72 3.01 2.97 2.20 1.68 1.26 0.84 0.93 0.97 1.02 1.19 1.26 1.35 1.71 2.06 1.96
3.14 3.27 3.39 3.56 3.61 3.60 3.62 3.71 3.74 3.83 3.51 3.37 3.30 3.18 2.83 2.74 2.66 2.67 2.55 2.44 2.49 2.42 2.33 2.30 2.47 2.58 2.39 2.38 2.73 3.08 2.51 1.89 1.46 1.01 0.94 0.92 1.14 1.44 1.45 1.47 1.60 1.84 1.97
2.45 2.70 3.12 3.28 3.40 3.58 3.80 3.79 3.76 3.64 3.52 3.52 3.63 3.60 3.46 3.20 2.92 2.69 2.49 2.35 2.24 2.14 2.20 1.97 2.21 2.37 2.44 2.14 2.27 2.36 2.24 2.17 2.08 1.52 1.13 1.04 1.30 1.47 1.51 1.52 1.58 1.73 1.87
2.07 2.35 2.84 3.34 3.57 3.74 3.92 3.98 4.17 3.99 3.80 3.69 3.74 3.79 3.57 3.33 3.03 2.70 2.59 2.46 2.30 2.14 2.06 2.00 2.16 2.09 2.10 2.04 2.10 2.11 2.12 2.12 2.02 1.89 1.54 1.40 1.33 1.13 1.15 1.27 1.48 1.76 1.85
2.23 2.47 2.82 3.23 3.55 3.73 3.85 3.87 3.88 3.83 3.77 3.56 3.45 3.21 2.87 2.75 2.63 2.44 2.36 2.28 2.14 2.10 2.08 2.04 2.02 1.99 2.03 2.10 2.07 2.01 2.07 2.09 2.08 2.15 1.86 1.63 1.47 1.24 1.19 1.24 1.38 1.55 1.64